Location: Unspecified
(0.0000°N, 0.0000°E)
Time: 14:29:54
(UTC+00:00)

Altair - Pass Details

Date: 19 March 2026
Orbit: 1502 x 1682 km, 47.2° (Epoch: 18 April)

Event Time Altitude Azimuth Distance (km) Brightness Sun altitude
Rises 05:25:22 0° 320° (NW) 4,648 9.6 -10.6°
Reaches altitude 10° 05:28:21 10° 320° (NW) 3,683 9.1 -9.9°
Maximum altitude 05:37:42 89° 232° (SW) 1,565 7.6 -7.5°
Drops below altitude 10° 05:47:27 10° 141° (SE) 3,829 10.2 -5.1°
Sets 05:50:36 0° 141° (SE) 4,840 10.8 -4.3°
